Time,TemperatureF,DewpointF,PressureIn,WindDirection,WindDirectionDegrees,WindSpeedMPH,WindSpeedGustMPH,Humidity,HourlyPrecipIn,Conditions,Clouds,dailyrainin,SoftwareType,DateUTC
2013-04-10 00:00:00,43.0,41.7,29.99,ENE,65,6.0,12.0,95,0.00,,---,0.00,VWS V14.01,2013-04-10 04:00:00,
2013-04-10 00:05:00,42.9,41.6,29.99,ENE,70,7.0,11.0,95,0.00,,---,0.00,VWS V14.01,2013-04-10 04:05:00,
2013-04-10 00:10:00,43.0,41.7,29.99,NE,54,6.0,8.0,95,0.00,,---,0.00,VWS V14.01,2013-04-10 04:10:00,
2013-04-10 00:15:00,42.9,41.6,29.99,NE,51,5.0,13.0,95,0.00,,---,0.00,VWS V14.01,2013-04-10 04:15:00,
2013-04-10 00:20:00,42.9,41.6,29.99,ENE,73,11.0,11.0,95,0.00,,---,0.00,VWS V14.01,2013-04-10 04:20:00,
2013-04-10 00:25:00,42.9,41.6,29.98,ENE,63,8.0,10.0,95,0.00,,---,0.00,VWS V14.01,2013-04-10 04:25:00,
2013-04-10 00:30:00,42.8,41.5,29.98,ENE,57,8.0,12.0,95,0.00,,---,0.00,VWS V14.01,2013-04-10 04:30:00,
2013-04-10 00:35:00,42.7,41.4,29.98,ENE,60,6.0,7.0,95,0.00,,---,0.00,VWS V14.01,2013-04-10 04:35:00,
2013-04-10 00:40:00,42.7,41.4,29.98,ENE,59,10.0,14.0,95,0.00,,---,0.00,VWS V14.01,2013-04-10 04:40:00,
2013-04-10 00:45:00,42.5,40.9,29.98,ENE,69,11.0,12.0,94,0.00,,---,0.00,VWS V14.01,2013-04-10 04:45:00,
2013-04-10 00:50:00,42.4,40.8,29.99,ENE,69,13.0,17.0,94,0.00,,---,0.00,VWS V14.01,2013-04-10 04:50:00,
2013-04-10 00:55:00,42.2,40.6,29.98,NE,54,10.0,15.0,94,0.00,,---,0.00,VWS V14.01,2013-04-10 04:55:00,
2013-04-10 01:00:00,42.1,40.5,29.99,NE,48,15.0,15.0,94,0.00,,---,0.00,VWS V14.01,2013-04-10 05:00:00,
2013-04-10 01:05:00,41.9,40.0,29.99,NE,46,8.0,17.0,93,0.00,,---,0.00,VWS V14.01,2013-04-10 05:05:00,
2013-04-10 01:10:00,41.9,40.0,29.98,ENE,75,10.0,13.0,93,0.00,,---,0.00,VWS V14.01,2013-04-10 05:10:00,
2013-04-10 01:15:00,41.8,39.9,29.98,ENE,65,14.0,15.0,93,0.00,,---,0.00,VWS V14.01,2013-04-10 05:15:00,
2013-04-10 01:20:00,41.8,39.9,29.99,ENE,64,8.0,11.0,93,0.00,,---,0.00,VWS V14.01,2013-04-10 05:20:00,
2013-04-10 01:25:00,41.7,39.8,29.98,NE,55,4.0,10.0,93,0.00,,---,0.00,VWS V14.01,2013-04-10 05:25:00,
2013-04-10 01:30:00,41.7,40.1,29.98,NE,46,10.0,11.0,94,0.00,,---,0.00,VWS V14.01,2013-04-10 05:30:00,
2013-04-10 01:35:00,41.7,40.1,29.98,ENE,69,6.0,8.0,94,0.00,,---,0.00,VWS V14.01,2013-04-10 05:35:00,
2013-04-10 01:40:00,41.6,40.0,29.97,ENE,59,6.0,11.0,94,0.00,,---,0.00,VWS V14.01,2013-04-10 05:40:00,
2013-04-10 01:45:00,41.5,39.9,29.97,ENE,69,5.0,10.0,94,0.00,,---,0.00,VWS V14.01,2013-04-10 05:45:00,
2013-04-10 01:50:00,41.4,39.8,29.96,ENE,71,6.0,12.0,94,0.00,,---,0.00,VWS V14.01,2013-04-10 05:50:00,
2013-04-10 01:55:00,41.3,39.7,29.97,ENE,76,10.0,13.0,94,0.00,,---,0.00,VWS V14.01,2013-04-10 05:55:00,
2013-04-10 02:01:00,41.2,39.6,29.97,East,85,4.0,14.0,94,0.00,,---,0.00,VWS V14.01,2013-04-10 06:01:00,
2013-04-10 02:06:00,41.1,39.5,29.96,ENE,63,6.0,12.0,94,0.00,,---,0.00,VWS V14.01,2013-04-10 06:06:00,
2013-04-10 02:11:00,41.0,39.4,29.96,NE,43,11.0,13.0,94,0.00,,---,0.00,VWS V14.01,2013-04-10 06:11:00,
2013-04-10 02:16:00,40.9,39.3,29.96,ENE,67,7.0,8.0,94,0.00,,---,0.00,VWS V14.01,2013-04-10 06:16:00,
2013-04-10 02:21:00,40.9,39.3,29.96,ENE,65,10.0,13.0,94,0.00,,---,0.00,VWS V14.01,2013-04-10 06:21:00,
2013-04-10 02:26:00,40.8,39.2,29.95,ENE,62,10.0,11.0,94,0.00,,---,0.00,VWS V14.01,2013-04-10 06:26:00,
2013-04-10 02:31:00,40.8,39.2,29.94,ENE,71,10.0,10.0,94,0.00,,---,0.00,VWS V14.01,2013-04-10 06:31:00,
2013-04-10 02:36:00,40.8,39.2,29.94,East,86,8.0,13.0,94,0.00,,---,0.00,VWS V14.01,2013-04-10 06:36:00,
2013-04-10 02:41:00,40.8,39.2,29.94,ENE,69,7.0,8.0,94,0.00,,---,0.00,VWS V14.01,2013-04-10 06:41:00,
2013-04-10 02:46:00,40.8,39.2,29.94,ENE,71,7.0,10.0,94,0.00,,---,0.00,VWS V14.01,2013-04-10 06:46:00,
2013-04-10 02:51:00,40.8,39.2,29.93,East,85,7.0,10.0,94,0.00,,---,0.00,VWS V14.01,2013-04-10 06:51:00,
2013-04-10 02:56:00,40.7,39.1,29.93,ESE,103,8.0,11.0,94,0.00,,---,0.00,VWS V14.01,2013-04-10 06:56:00,
2013-04-10 03:01:00,40.7,39.1,29.94,East,88,7.0,10.0,94,0.00,,---,0.00,VWS V14.01,2013-04-10 07:01:00,
2013-04-10 03:06:00,40.7,39.1,29.94,ENE,74,7.0,10.0,94,0.00,,---,0.00,VWS V14.01,2013-04-10 07:06:00,
2013-04-10 03:11:00,40.7,39.1,29.93,ENE,71,7.0,12.0,94,0.00,,---,0.00,VWS V14.01,2013-04-10 07:11:00,
2013-04-10 03:16:00,40.7,39.1,29.93,ESE,104,7.0,12.0,94,0.00,,---,0.00,VWS V14.01,2013-04-10 07:16:00,
2013-04-10 03:21:00,40.6,39.0,29.92,East,93,8.0,12.0,94,0.00,,---,0.00,VWS V14.01,2013-04-10 07:21:00,
2013-04-10 03:26:00,40.6,39.0,29.92,ENE,77,8.0,8.0,94,0.00,,---,0.00,VWS V14.01,2013-04-10 07:26:00,
2013-04-10 03:31:00,40.6,39.0,29.92,East,96,6.0,8.0,94,0.00,,---,0.00,VWS V14.01,2013-04-10 07:31:00,
2013-04-10 03:36:00,40.7,39.1,29.92,ENE,66,7.0,11.0,94,0.00,,---,0.00,VWS V14.01,2013-04-10 07:36:00,
2013-04-10 03:41:00,40.6,39.0,29.93,ENE,70,5.0,11.0,94,0.00,,---,0.00,VWS V14.01,2013-04-10 07:41:00,
2013-04-10 03:46:00,40.7,39.1,29.92,ENE,76,10.0,11.0,94,0.00,,---,0.00,VWS V14.01,2013-04-10 07:46:00,
2013-04-10 03:51:00,40.7,39.4,29.92,NE,55,5.0,8.0,95,0.00,,---,0.00,VWS V14.01,2013-04-10 07:51:00,
2013-04-10 03:56:00,40.7,39.1,29.92,ENE,76,8.0,12.0,94,0.00,,---,0.00,VWS V14.01,2013-04-10 07:56:00,
2013-04-10 04:01:00,40.7,39.4,29.92,ENE,76,7.0,14.0,95,0.00,,---,0.00,VWS V14.01,2013-04-10 08:01:00,
2013-04-10 04:06:00,40.7,39.4,29.92,East,82,13.0,13.0,95,0.00,,---,0.00,VWS V14.01,2013-04-10 08:06:00,
2013-04-10 04:11:00,40.6,39.0,29.92,East,79,12.0,13.0,94,0.00,,---,0.00,VWS V14.01,2013-04-10 08:11:00,
2013-04-10 04:16:00,40.6,39.3,29.92,ENE,74,8.0,12.0,95,0.00,,---,0.00,VWS V14.01,2013-04-10 08:16:00,
2013-04-10 04:21:00,40.6,39.3,29.92,NNE,32,8.0,10.0,95,0.00,,---,0.00,VWS V14.01,2013-04-10 08:21:00,
2013-04-10 04:26:00,40.6,39.3,29.92,East,83,6.0,8.0,95,0.00,,---,0.00,VWS V14.01,2013-04-10 08:26:00,
2013-04-10 04:31:00,40.6,39.3,29.91,NE,55,8.0,13.0,95,0.00,,---,0.00,VWS V14.01,2013-04-10 08:31:00,
2013-04-10 04:36:00,40.6,39.3,29.91,East,92,7.0,12.0,95,0.00,,---,0.00,VWS V14.01,2013-04-10 08:36:00,
2013-04-10 04:41:00,40.6,39.3,29.91,NE,54,13.0,13.0,95,0.00,,---,0.00,VWS V14.01,2013-04-10 08:41:00,
2013-04-10 04:46:00,40.6,39.3,29.92,ESE,103,11.0,11.0,95,0.00,,---,0.00,VWS V14.01,2013-04-10 08:46:00,
2013-04-10 04:51:00,40.6,39.3,29.93,East,90,8.0,8.0,95,0.00,,---,0.00,VWS V14.01,2013-04-10 08:51:00,
2013-04-10 04:56:00,40.5,39.2,29.91,ENE,76,7.0,13.0,95,0.03,,---,0.03,VWS V14.01,2013-04-10 08:56:00,
2013-04-10 05:01:00,40.5,39.2,29.92,East,91,7.0,14.0,95,0.04,,---,0.04,VWS V14.01,2013-04-10 09:01:00,
2013-04-10 05:06:00,40.4,39.1,29.93,ENE,65,3.0,11.0,95,0.08,,---,0.08,VWS V14.01,2013-04-10 09:06:00,
2013-04-10 05:11:00,40.4,39.3,29.94,NNE,32,7.0,8.0,96,0.15,,---,0.15,VWS V14.01,2013-04-10 09:11:00,
2013-04-10 05:16:00,40.4,39.3,29.93,ENE,57,7.0,12.0,96,0.20,,---,0.20,VWS V14.01,2013-04-10 09:16:00,
2013-04-10 05:21:00,40.2,39.2,29.94,NE,35,9.0,14.0,96,0.22,,---,0.22,VWS V14.01,2013-04-10 09:21:00,
2013-04-10 05:27:00,40.2,39.2,29.95,NNE,12,10.0,11.0,96,0.24,,---,0.24,VWS V14.01,2013-04-10 09:27:00,
2013-04-10 05:32:00,40.1,39.0,29.96,NNE,17,8.0,14.0,96,0.25,,---,0.25,VWS V14.01,2013-04-10 09:32:00,
2013-04-10 05:37:00,40.0,39.0,29.95,NE,48,17.0,17.0,96,0.25,,---,0.25,VWS V14.01,2013-04-10 09:37:00,
2013-04-10 05:42:00,39.8,38.8,29.95,NE,40,9.0,14.0,96,0.25,,---,0.25,VWS V14.01,2013-04-10 09:42:00,
2013-04-10 05:47:00,39.7,38.7,29.94,NE,40,8.0,17.0,96,0.25,,---,0.25,VWS V14.01,2013-04-10 09:47:00,
2013-04-10 05:52:00,39.6,38.6,29.94,NNE,17,13.0,14.0,96,0.25,,---,0.25,VWS V14.01,2013-04-10 09:52:00,
2013-04-10 05:57:00,39.5,38.5,29.94,NE,42,9.0,16.0,96,0.25,,---,0.25,VWS V14.01,2013-04-10 09:57:00,
2013-04-10 06:02:00,39.3,38.3,29.95,NNE,30,9.0,16.0,96,0.22,,---,0.25,VWS V14.01,2013-04-10 10:02:00,
2013-04-10 06:07:00,39.2,38.2,29.95,ENE,57,16.0,16.0,96,0.21,,---,0.25,VWS V14.01,2013-04-10 10:07:00,
2013-04-10 06:12:00,39.2,38.2,29.96,NE,35,8.0,13.0,96,0.15,,---,0.25,VWS V14.01,2013-04-10 10:12:00,
2013-04-10 06:17:00,39.1,38.1,29.96,NE,39,9.0,14.0,96,0.09,,---,0.25,VWS V14.01,2013-04-10 10:17:00,
2013-04-10 06:22:00,39.0,38.0,29.94,ENE,59,12.0,18.0,96,0.05,,---,0.26,VWS V14.01,2013-04-10 10:22:00,
2013-04-10 06:27:00,38.9,37.9,29.95,ENE,58,10.0,17.0,96,0.03,,---,0.26,VWS V14.01,2013-04-10 10:27:00,
2013-04-10 06:32:00,38.9,37.9,29.94,ENE,74,13.0,15.0,96,0.02,,---,0.26,VWS V14.01,2013-04-10 10:32:00,
2013-04-10 06:37:00,38.8,37.8,29.94,East,84,13.0,24.0,96,0.01,,---,0.26,VWS V14.01,2013-04-10 10:37:00,
2013-04-10 06:42:00,38.7,37.7,29.93,ENE,77,10.0,18.0,96,0.01,,---,0.26,VWS V14.01,2013-04-10 10:42:00,
2013-04-10 06:47:00,38.6,37.6,29.93,ENE,67,13.0,15.0,96,0.01,,---,0.26,VWS V14.01,2013-04-10 10:47:00,
2013-04-10 06:52:00,38.6,37.6,29.93,ENE,65,19.0,19.0,96,0.01,,---,0.26,VWS V14.01,2013-04-10 10:52:00,
2013-04-10 06:57:00,38.6,37.6,29.93,ENE,62,8.0,13.0,96,0.01,,---,0.26,VWS V14.01,2013-04-10 10:57:00,
2013-04-10 07:02:00,38.6,37.6,29.94,ENE,71,7.0,14.0,96,0.01,,---,0.26,VWS V14.01,2013-04-10 11:02:00,
2013-04-10 07:07:00,38.6,37.6,29.94,ENE,57,6.0,11.0,96,0.01,,---,0.26,VWS V14.01,2013-04-10 11:07:00,
2013-04-10 07:12:00,38.6,37.6,29.93,ENE,64,7.0,18.0,96,0.01,,---,0.26,VWS V14.01,2013-04-10 11:12:00,
2013-04-10 07:17:00,38.6,37.6,29.94,NE,45,11.0,14.0,96,0.01,,---,0.26,VWS V14.01,2013-04-10 11:17:00,
2013-04-10 07:22:00,38.6,37.6,29.95,NE,49,19.0,21.0,96,0.01,,---,0.26,VWS V14.01,2013-04-10 11:22:00,
2013-04-10 07:27:00,38.6,37.6,29.95,NE,43,10.0,16.0,96,0.00,,---,0.26,VWS V14.01,2013-04-10 11:27:00,
2013-04-10 07:32:00,38.6,37.6,29.95,NE,53,18.0,18.0,96,0.00,,---,0.26,VWS V14.01,2013-04-10 11:32:00,
2013-04-10 07:37:00,38.6,37.3,29.93,East,95,14.0,21.0,95,0.00,,---,0.26,VWS V14.01,2013-04-10 11:37:00,
2013-04-10 07:42:00,38.5,37.2,29.95,East,84,7.0,17.0,95,0.00,,---,0.26,VWS V14.01,2013-04-10 11:42:00,
2013-04-10 07:47:00,38.4,37.4,29.94,ENE,59,12.0,17.0,96,0.00,,---,0.26,VWS V14.01,2013-04-10 11:47:00,
2013-04-10 07:52:00,38.4,37.4,29.94,NE,42,9.0,17.0,96,0.00,,---,0.26,VWS V14.01,2013-04-10 11:52:00,
2013-04-10 07:57:00,38.4,37.4,29.94,ENE,75,13.0,18.0,96,0.01,,---,0.27,VWS V14.01,2013-04-10 11:57:00,
2013-04-10 08:02:00,38.4,37.4,29.93,East,83,15.0,19.0,96,0.01,,---,0.27,VWS V14.01,2013-04-10 12:02:00,
2013-04-10 08:07:00,38.4,37.4,29.93,East,87,6.0,16.0,96,0.01,,---,0.27,VWS V14.01,2013-04-10 12:07:00,
2013-04-10 08:12:00,38.4,37.4,29.92,ENE,65,6.0,17.0,96,0.01,,---,0.27,VWS V14.01,2013-04-10 12:12:00,
2013-04-10 08:17:00,38.3,37.3,29.92,East,83,14.0,20.0,96,0.01,,---,0.27,VWS V14.01,2013-04-10 12:17:00,
2013-04-10 08:22:00,38.3,37.3,29.92,East,82,7.0,19.0,96,0.01,,---,0.27,VWS V14.01,2013-04-10 12:22:00,
2013-04-10 08:27:00,38.3,37.3,29.92,ENE,63,11.0,18.0,96,0.01,,---,0.27,VWS V14.01,2013-04-10 12:27:00,
2013-04-10 08:33:00,38.3,37.3,29.92,East,94,9.0,19.0,96,0.01,,---,0.27,VWS V14.01,2013-04-10 12:33:00,
2013-04-10 08:38:00,38.3,37.3,29.92,East,83,15.0,18.0,96,0.01,,---,0.27,VWS V14.01,2013-04-10 12:38:00,
2013-04-10 08:43:00,38.3,37.3,29.92,ENE,72,11.0,20.0,96,0.01,,---,0.27,VWS V14.01,2013-04-10 12:43:00,
2013-04-10 08:48:00,38.4,37.4,29.92,ENE,71,6.0,21.0,96,0.01,,---,0.27,VWS V14.01,2013-04-10 12:48:00,
2013-04-10 08:53:00,38.4,37.4,29.92,East,92,11.0,21.0,96,0.01,,---,0.27,VWS V14.01,2013-04-10 12:53:00,
2013-04-10 08:58:00,38.4,37.4,29.93,East,97,13.0,18.0,96,0.01,,---,0.27,VWS V14.01,2013-04-10 12:58:00,
2013-04-10 09:03:00,38.5,37.5,29.93,East,82,10.0,13.0,96,0.00,,---,0.27,VWS V14.01,2013-04-10 13:03:00,
2013-04-10 09:08:00,38.5,37.5,29.92,ESE,105,11.0,16.0,96,0.00,,---,0.27,VWS V14.01,2013-04-10 13:08:00,
2013-04-10 09:13:00,38.6,37.6,29.93,ENE,78,6.0,15.0,96,0.00,,---,0.27,VWS V14.01,2013-04-10 13:13:00,
2013-04-10 09:18:00,38.7,37.7,29.95,NNE,23,8.0,13.0,96,0.00,,---,0.27,VWS V14.01,2013-04-10 13:18:00,
2013-04-10 09:23:00,38.7,37.7,29.95,NNE,21,8.0,13.0,96,0.00,,---,0.27,VWS V14.01,2013-04-10 13:23:00,
2013-04-10 09:28:00,38.8,37.8,29.97,NNE,12,8.0,12.0,96,0.01,,---,0.28,VWS V14.01,2013-04-10 13:28:00,
2013-04-10 09:33:00,38.8,37.8,29.96,North,5,9.0,10.0,96,0.01,,---,0.28,VWS V14.01,2013-04-10 13:33:00,
2013-04-10 09:38:00,38.8,37.8,29.96,NNE,19,6.0,10.0,96,0.02,,---,0.29,VWS V14.01,2013-04-10 13:38:00,
2013-04-10 09:43:00,38.8,37.8,29.96,North,5,8.0,11.0,96,0.02,,---,0.29,VWS V14.01,2013-04-10 13:43:00,
2013-04-10 09:48:00,38.9,37.9,29.94,NNE,27,7.0,10.0,96,0.02,,---,0.29,VWS V14.01,2013-04-10 13:48:00,
2013-04-10 09:53:00,38.9,37.9,29.93,NE,40,13.0,14.0,96,0.02,,---,0.29,VWS V14.01,2013-04-10 13:53:00,
2013-04-10 09:58:00,39.0,38.0,29.93,ENE,67,5.0,14.0,96,0.02,,---,0.29,VWS V14.01,2013-04-10 13:58:00,
2013-04-10 10:03:00,39.1,38.1,29.92,NE,47,10.0,14.0,96,0.02,,---,0.29,VWS V14.01,2013-04-10 14:03:00,
2013-04-10 10:08:00,39.2,38.2,29.93,ENE,59,12.0,16.0,96,0.02,,---,0.29,VWS V14.01,2013-04-10 14:08:00,
2013-04-10 10:13:00,39.2,38.4,29.96,NNW,341,9.0,12.0,97,0.02,,---,0.29,VWS V14.01,2013-04-10 14:13:00,
2013-04-10 10:18:00,39.4,38.6,30.00,NE,52,3.0,19.0,97,0.03,,---,0.30,VWS V14.01,2013-04-10 14:18:00,
2013-04-10 10:23:00,39.4,38.6,29.98,NE,38,6.0,6.0,97,0.17,,---,0.44,VWS V14.01,2013-04-10 14:23:00,
2013-04-10 10:28:00,39.2,38.2,29.94,East,88,19.0,21.0,96,0.20,,---,0.47,VWS V14.01,2013-04-10 14:28:00,
2013-04-10 10:33:00,39.3,38.5,29.96,NNE,30,4.0,19.0,97,0.21,,---,0.49,VWS V14.01,2013-04-10 14:33:00,
2013-04-10 10:38:00,39.4,38.6,29.95,NNE,15,6.0,15.0,97,0.21,,---,0.49,VWS V14.01,2013-04-10 14:38:00,
2013-04-10 10:43:00,39.4,38.6,29.92,NE,53,12.0,18.0,97,0.21,,---,0.50,VWS V14.01,2013-04-10 14:43:00,
2013-04-10 10:48:00,39.4,38.4,29.91,ENE,65,13.0,21.0,96,0.22,,---,0.51,VWS V14.01,2013-04-10 14:48:00,
2013-04-10 10:53:00,39.4,38.4,29.91,ENE,70,14.0,22.0,96,0.22,,---,0.51,VWS V14.01,2013-04-10 14:53:00,
2013-04-10 10:58:00,39.4,38.4,29.90,East,92,18.0,20.0,96,0.23,,---,0.52,VWS V14.01,2013-04-10 14:58:00,
2013-04-10 11:03:00,39.5,38.5,29.90,ESE,111,11.0,15.0,96,0.23,,---,0.52,VWS V14.01,2013-04-10 15:03:00,
2013-04-10 11:08:00,39.5,38.5,29.86,East,85,23.0,23.0,96,0.24,,---,0.53,VWS V14.01,2013-04-10 15:08:00,
2013-04-10 11:13:00,39.5,38.5,29.87,East,85,14.0,22.0,96,0.24,,---,0.53,VWS V14.01,2013-04-10 15:13:00,
2013-04-10 11:18:00,39.6,38.6,29.88,ESE,109,15.0,22.0,96,0.25,,---,0.54,VWS V14.01,2013-04-10 15:18:00,
2013-04-10 11:23:00,39.5,38.5,29.88,ENE,71,15.0,18.0,96,0.23,,---,0.54,VWS V14.01,2013-04-10 15:23:00,
2013-04-10 11:28:00,39.5,38.5,29.90,ESE,119,6.0,14.0,96,0.10,,---,0.54,VWS V14.01,2013-04-10 15:28:00,
2013-04-10 11:33:00,39.6,38.6,29.93,SSE,164,10.0,17.0,96,0.06,,---,0.54,VWS V14.01,2013-04-10 15:33:00,
2013-04-10 11:38:00,39.6,38.6,29.90,ESE,104,8.0,14.0,96,0.05,,---,0.54,VWS V14.01,2013-04-10 15:38:00,
2013-04-10 11:43:00,39.6,38.6,29.87,East,88,12.0,18.0,96,0.05,,---,0.54,VWS V14.01,2013-04-10 15:43:00,
2013-04-10 11:48:00,39.6,38.6,29.85,ENE,78,18.0,22.0,96,0.04,,---,0.54,VWS V14.01,2013-04-10 15:48:00,
2013-04-10 11:53:00,39.7,38.7,29.85,East,92,11.0,21.0,96,0.03,,---,0.54,VWS V14.01,2013-04-10 15:53:00,
2013-04-10 11:58:00,39.7,38.7,29.86,East,99,12.0,18.0,96,0.03,,---,0.54,VWS V14.01,2013-04-10 15:58:00,
2013-04-10 12:03:00,39.9,38.8,29.88,ENE,73,6.0,14.0,96,0.02,,---,0.54,VWS V14.01,2013-04-10 16:03:00,
2013-04-10 12:08:00,40.0,39.0,29.90,ENE,66,13.0,13.0,96,0.02,,---,0.54,VWS V14.01,2013-04-10 16:08:00,
2013-04-10 12:13:00,40.2,39.2,29.89,ENE,73,10.0,15.0,96,0.01,,---,0.54,VWS V14.01,2013-04-10 16:13:00,
2013-04-10 12:18:00,40.4,39.3,29.90,ENE,67,7.0,14.0,96,0.00,,---,0.54,VWS V14.01,2013-04-10 16:18:00,
2013-04-10 12:23:00,40.5,39.5,29.91,ENE,67,10.0,12.0,96,0.00,,---,0.54,VWS V14.01,2013-04-10 16:23:00,
2013-04-10 12:28:00,40.6,39.5,29.92,ESE,122,9.0,15.0,96,0.00,,---,0.54,VWS V14.01,2013-04-10 16:28:00,
2013-04-10 12:33:00,40.6,39.3,29.91,ENE,78,6.0,17.0,95,0.01,,---,0.55,VWS V14.01,2013-04-10 16:33:00,
2013-04-10 12:38:00,40.6,39.3,29.95,ESE,115,4.0,8.0,95,0.01,,---,0.55,VWS V14.01,2013-04-10 16:38:00,
2013-04-10 12:43:00,40.6,39.3,29.90,ENE,69,10.0,11.0,95,0.01,,---,0.55,VWS V14.01,2013-04-10 16:43:00,
2013-04-10 12:48:00,40.7,39.7,29.93,ENE,59,6.0,10.0,96,0.01,,---,0.55,VWS V14.01,2013-04-10 16:48:00,
2013-04-10 12:53:00,40.7,39.7,29.94,ENE,71,2.0,8.0,96,0.01,,---,0.55,VWS V14.01,2013-04-10 16:53:00,
2013-04-10 12:58:00,40.8,39.8,29.94,NE,42,5.0,8.0,96,0.01,,---,0.55,VWS V14.01,2013-04-10 16:58:00,
2013-04-10 13:03:00,41.0,40.0,29.94,NE,34,6.0,7.0,96,0.01,,---,0.55,VWS V14.01,2013-04-10 17:03:00,
2013-04-10 13:08:00,41.3,40.2,29.93,NE,50,4.0,8.0,96,0.01,,---,0.55,VWS V14.01,2013-04-10 17:08:00,
2013-04-10 13:13:00,41.6,40.5,29.93,NNE,18,10.0,11.0,96,0.01,,---,0.55,VWS V14.01,2013-04-10 17:13:00,
2013-04-10 13:18:00,41.6,40.3,29.93,NE,36,12.0,13.0,95,0.01,,---,0.55,VWS V14.01,2013-04-10 17:18:00,
2013-04-10 13:23:00,41.7,40.7,29.91,NNE,15,8.0,12.0,96,0.01,,---,0.55,VWS V14.01,2013-04-10 17:23:00,
2013-04-10 13:28:00,41.7,40.4,29.91,NNE,17,12.0,17.0,95,0.01,,---,0.55,VWS V14.01,2013-04-10 17:28:00,
2013-04-10 13:33:00,41.6,40.3,29.92,NNE,28,15.0,17.0,95,0.01,,---,0.55,VWS V14.01,2013-04-10 17:33:00,
2013-04-10 13:38:00,41.5,40.2,29.91,NNE,22,10.0,16.0,95,0.00,,---,0.55,VWS V14.01,2013-04-10 17:38:00,
2013-04-10 13:43:00,41.5,40.2,29.91,NE,42,10.0,21.0,95,0.01,,---,0.56,VWS V14.01,2013-04-10 17:43:00,
2013-04-10 13:48:00,41.5,40.2,29.91,NE,38,11.0,16.0,95,0.01,,---,0.56,VWS V14.01,2013-04-10 17:48:00,
2013-04-10 13:53:00,41.6,40.3,29.94,ENE,61,6.0,16.0,95,0.01,,---,0.56,VWS V14.01,2013-04-10 17:53:00,
2013-04-10 13:58:00,41.7,40.4,29.94,NE,34,9.0,13.0,95,0.01,,---,0.56,VWS V14.01,2013-04-10 17:58:00,
2013-04-10 14:03:00,41.7,40.4,29.95,NNE,25,9.0,14.0,95,0.01,,---,0.56,VWS V14.01,2013-04-10 18:03:00,
2013-04-10 14:08:00,41.6,40.0,29.95,ENE,59,10.0,15.0,94,0.01,,---,0.56,VWS V14.01,2013-04-10 18:08:00,
2013-04-10 14:13:00,41.6,40.0,29.96,ENE,65,10.0,16.0,94,0.01,,---,0.56,VWS V14.01,2013-04-10 18:13:00,
2013-04-10 14:18:00,41.6,40.0,29.96,NE,46,11.0,12.0,94,0.01,,---,0.56,VWS V14.01,2013-04-10 18:18:00,
2013-04-10 14:23:00,41.6,40.0,29.95,NE,39,10.0,14.0,94,0.01,,---,0.56,VWS V14.01,2013-04-10 18:23:00,
2013-04-10 14:28:00,41.6,40.0,29.95,NE,46,12.0,20.0,94,0.01,,---,0.56,VWS V14.01,2013-04-10 18:28:00,
2013-04-10 14:33:00,41.4,39.8,29.95,NNE,14,16.0,19.0,94,0.01,,---,0.56,VWS V14.01,2013-04-10 18:33:00,
2013-04-10 14:38:00,41.3,39.7,29.94,NE,35,17.0,18.0,94,0.01,,---,0.56,VWS V14.01,2013-04-10 18:38:00,
2013-04-10 14:43:00,41.1,39.5,29.93,NE,44,14.0,21.0,94,0.01,,---,0.56,VWS V14.01,2013-04-10 18:43:00,
2013-04-10 14:48:00,41.0,39.4,29.93,North,11,13.0,23.0,94,0.00,,---,0.56,VWS V14.01,2013-04-10 18:48:00,
2013-04-10 14:53:00,41.0,41.0,29.92,NE,34,20.0,20.0,100,0.00,,---,0.56,VWS V14.01,2013-04-10 18:53:00,
2013-04-10 14:58:00,41.0,39.4,29.92,NE,50,13.0,18.0,94,0.00,,---,0.56,VWS V14.01,2013-04-10 18:58:00,
2013-04-10 15:03:00,41.0,39.4,29.92,NNE,32,19.0,23.0,94,0.00,,---,0.56,VWS V14.01,2013-04-10 19:03:00,
2013-04-10 15:08:00,41.0,39.4,29.92,ENE,61,13.0,22.0,94,0.00,,---,0.56,VWS V14.01,2013-04-10 19:08:00,
2013-04-10 15:13:00,41.0,40.7,29.96,ENE,57,12.0,17.0,99,0.00,,---,0.56,VWS V14.01,2013-04-10 19:13:00,
2013-04-10 15:18:00,41.0,39.4,29.97,ENE,57,7.0,12.0,94,0.00,,---,0.56,VWS V14.01,2013-04-10 19:18:00,
2013-04-10 15:23:00,41.0,40.7,29.97,NE,47,11.0,13.0,99,0.00,,---,0.56,VWS V14.01,2013-04-10 19:23:00,
2013-04-10 15:28:00,41.0,39.4,29.96,NE,55,10.0,14.0,94,0.00,,---,0.56,VWS V14.01,2013-04-10 19:28:00,
2013-04-10 15:33:00,41.1,39.5,29.95,ENE,57,12.0,12.0,94,0.00,,---,0.56,VWS V14.01,2013-04-10 19:33:00,
2013-04-10 15:38:00,41.2,39.6,29.97,East,90,9.0,14.0,94,0.00,,---,0.56,VWS V14.01,2013-04-10 19:38:00,
2013-04-10 15:43:00,41.0,39.4,29.97,NE,50,8.0,13.0,94,0.00,,---,0.56,VWS V14.01,2013-04-10 19:43:00,
2013-04-10 15:48:00,41.0,39.4,29.95,ENE,77,7.0,17.0,94,0.00,,---,0.56,VWS V14.01,2013-04-10 19:48:00,
2013-04-10 15:53:00,41.2,39.6,29.93,ENE,61,13.0,14.0,94,0.00,,---,0.56,VWS V14.01,2013-04-10 19:53:00,
2013-04-10 15:58:00,41.1,39.5,29.95,ENE,63,12.0,19.0,94,0.00,,---,0.56,VWS V14.01,2013-04-10 19:58:00,
2013-04-10 16:03:00,41.1,39.2,29.95,NE,53,10.0,15.0,93,0.00,,---,0.56,VWS V14.01,2013-04-10 20:03:00,
2013-04-10 16:08:00,41.1,39.5,29.96,ENE,78,11.0,14.0,94,0.00,,---,0.56,VWS V14.01,2013-04-10 20:08:00,
2013-04-10 16:13:00,41.1,39.2,29.98,ENE,78,6.0,15.0,93,0.00,,---,0.56,VWS V14.01,2013-04-10 20:13:00,
2013-04-10 16:18:00,41.1,39.2,29.98,ENE,59,7.0,11.0,93,0.00,,---,0.56,VWS V14.01,2013-04-10 20:18:00,
2013-04-10 16:23:00,41.1,39.2,29.99,East,84,11.0,14.0,93,0.00,,---,0.56,VWS V14.01,2013-04-10 20:23:00,
2013-04-10 16:28:00,41.0,39.1,29.99,NE,49,12.0,15.0,93,0.00,,---,0.56,VWS V14.01,2013-04-10 20:28:00,
2013-04-10 16:33:00,41.1,39.5,30.00,NNE,30,9.0,15.0,94,0.00,,---,0.56,VWS V14.01,2013-04-10 20:33:00,
2013-04-10 16:38:00,41.1,39.5,29.99,ENE,57,13.0,15.0,94,0.00,,---,0.56,VWS V14.01,2013-04-10 20:38:00,
2013-04-10 16:43:00,41.1,39.5,29.97,NNE,32,16.0,18.0,94,0.00,,---,0.56,VWS V14.01,2013-04-10 20:43:00,
2013-04-10 16:48:00,41.1,39.5,29.95,NE,46,18.0,22.0,94,0.00,,---,0.56,VWS V14.01,2013-04-10 20:48:00,
2013-04-10 16:53:00,41.0,39.4,29.96,ENE,63,14.0,21.0,94,0.00,,---,0.56,VWS V14.01,2013-04-10 20:53:00,
2013-04-10 16:58:00,40.9,39.3,29.97,NNE,32,20.0,20.0,94,0.00,,---,0.56,VWS V14.01,2013-04-10 20:58:00,
2013-04-10 17:03:00,40.9,39.3,29.97,NE,52,15.0,21.0,94,0.00,,---,0.56,VWS V14.01,2013-04-10 21:03:00,
2013-04-10 17:08:00,40.9,39.3,29.96,NE,48,18.0,19.0,94,0.00,,---,0.56,VWS V14.01,2013-04-10 21:08:00,
2013-04-10 17:13:00,40.8,39.2,29.94,NE,46,11.0,19.0,94,0.00,,---,0.56,VWS V14.01,2013-04-10 21:13:00,
2013-04-10 17:18:00,40.7,39.1,29.93,NE,55,8.0,22.0,94,0.00,,---,0.56,VWS V14.01,2013-04-10 21:18:00,
2013-04-10 17:23:00,40.6,39.0,29.89,NE,46,24.0,28.0,94,0.00,,---,0.56,VWS V14.01,2013-04-10 21:23:00,
2013-04-10 17:28:00,40.5,39.2,29.92,NE,56,14.0,27.0,95,0.00,,---,0.56,VWS V14.01,2013-04-10 21:28:00,
2013-04-10 17:33:00,40.4,39.1,29.92,ENE,60,22.0,22.0,95,0.00,,---,0.56,VWS V14.01,2013-04-10 21:33:00,
2013-04-10 17:38:00,40.4,38.8,29.92,ENE,67,10.0,27.0,94,0.00,,---,0.56,VWS V14.01,2013-04-10 21:38:00,
2013-04-10 17:43:00,40.4,38.8,29.93,ENE,78,11.0,20.0,94,0.00,,---,0.56,VWS V14.01,2013-04-10 21:43:00,
2013-04-10 17:48:00,40.4,38.8,29.95,East,80,12.0,17.0,94,0.00,,---,0.56,VWS V14.01,2013-04-10 21:48:00,
2013-04-10 17:53:00,40.4,38.8,29.96,ENE,68,7.0,20.0,94,0.00,,---,0.56,VWS V14.01,2013-04-10 21:53:00,
2013-04-10 17:58:00,40.4,38.8,29.97,ENE,71,12.0,19.0,94,0.00,,---,0.56,VWS V14.01,2013-04-10 21:58:00,
2013-04-10 18:03:00,40.5,38.9,29.97,East,79,11.0,16.0,94,0.00,,---,0.56,VWS V14.01,2013-04-10 22:03:00,
2013-04-10 18:08:00,40.5,38.6,29.97,East,80,11.0,16.0,93,0.00,,---,0.56,VWS V14.01,2013-04-10 22:08:00,
2013-04-10 18:13:00,40.5,38.6,29.97,ENE,74,13.0,19.0,93,0.00,,---,0.56,VWS V14.01,2013-04-10 22:13:00,
2013-04-10 18:18:00,40.4,38.5,29.96,ENE,65,14.0,14.0,93,0.00,,---,0.56,VWS V14.01,2013-04-10 22:18:00,
2013-04-10 18:23:00,40.5,38.6,29.97,ESE,106,7.0,14.0,93,0.00,,---,0.56,VWS V14.01,2013-04-10 22:23:00,
2013-04-10 18:28:00,40.5,38.6,29.97,ENE,73,7.0,8.0,93,0.00,,---,0.56,VWS V14.01,2013-04-10 22:28:00,
2013-04-10 18:33:00,40.5,38.6,29.97,ENE,65,7.0,16.0,93,0.00,,---,0.56,VWS V14.01,2013-04-10 22:33:00,
2013-04-10 18:38:00,40.5,38.6,29.98,East,85,6.0,11.0,93,0.00,,---,0.56,VWS V14.01,2013-04-10 22:38:00,
2013-04-10 18:43:00,40.5,38.6,29.97,East,80,15.0,15.0,93,0.00,,---,0.56,VWS V14.01,2013-04-10 22:43:00,
2013-04-10 18:48:00,40.5,38.6,29.97,East,86,10.0,11.0,93,0.00,,---,0.56,VWS V14.01,2013-04-10 22:48:00,
2013-04-10 18:53:00,40.5,38.6,29.98,ENE,57,6.0,8.0,93,0.00,,---,0.56,VWS V14.01,2013-04-10 22:53:00,
2013-04-10 18:58:00,40.5,38.4,29.98,East,87,12.0,12.0,92,0.00,,---,0.56,VWS V14.01,2013-04-10 22:58:00,
2013-04-10 19:03:00,40.4,38.3,29.98,NE,54,16.0,16.0,92,0.00,,---,0.56,VWS V14.01,2013-04-10 23:03:00,
2013-04-10 19:08:00,40.4,38.3,29.98,ENE,67,11.0,13.0,92,0.00,,---,0.56,VWS V14.01,2013-04-10 23:08:00,
2013-04-10 19:13:00,40.3,38.2,29.98,ENE,64,12.0,14.0,92,0.00,,---,0.56,VWS V14.01,2013-04-10 23:13:00,
2013-04-10 19:18:00,40.3,38.2,29.96,ESE,111,14.0,14.0,92,0.00,,---,0.56,VWS V14.01,2013-04-10 23:18:00,
2013-04-10 19:23:00,40.2,38.1,29.96,NE,55,18.0,20.0,92,0.00,,---,0.56,VWS V14.01,2013-04-10 23:23:00,
2013-04-10 19:28:00,40.2,38.1,29.97,ENE,78,17.0,18.0,92,0.00,,---,0.56,VWS V14.01,2013-04-10 23:28:00,
2013-04-10 19:33:00,40.1,38.0,29.96,NE,49,15.0,19.0,92,0.00,,---,0.56,VWS V14.01,2013-04-10 23:33:00,
2013-04-10 19:38:00,40.1,38.0,29.96,NE,53,11.0,12.0,92,0.00,,---,0.56,VWS V14.01,2013-04-10 23:38:00,
2013-04-10 19:43:00,40.0,37.9,29.97,ENE,67,10.0,19.0,92,0.00,,---,0.56,VWS V14.01,2013-04-10 23:43:00,
2013-04-10 19:48:00,40.1,38.0,29.97,ENE,76,12.0,17.0,92,0.00,,---,0.56,VWS V14.01,2013-04-10 23:48:00,
2013-04-10 19:53:00,40.1,38.0,29.98,ENE,66,11.0,15.0,92,0.00,,---,0.56,VWS V14.01,2013-04-10 23:53:00,
2013-04-10 19:58:00,40.1,37.7,29.98,ENE,74,7.0,20.0,91,0.00,,---,0.56,VWS V14.01,2013-04-10 23:58:00,
2013-04-10 20:03:00,40.1,38.0,29.97,ENE,70,10.0,13.0,92,0.00,,---,0.56,VWS V14.01,2013-04-11 00:03:00,
2013-04-10 20:08:00,40.0,37.9,29.96,ENE,63,13.0,18.0,92,0.00,,---,0.56,VWS V14.01,2013-04-11 00:08:00,
2013-04-10 20:13:00,40.0,37.9,29.95,ENE,65,7.0,20.0,92,0.00,,---,0.56,VWS V14.01,2013-04-11 00:13:00,
2013-04-10 20:18:00,39.9,37.8,29.95,ENE,76,13.0,17.0,92,0.00,,---,0.56,VWS V14.01,2013-04-11 00:18:00,
2013-04-10 20:23:00,39.8,37.7,29.95,ENE,78,12.0,18.0,92,0.00,,---,0.56,VWS V14.01,2013-04-11 00:23:00,
2013-04-10 20:28:00,39.8,37.4,29.94,ENE,65,8.0,18.0,91,0.00,,---,0.56,VWS V14.01,2013-04-11 00:28:00,
2013-04-10 20:33:00,39.7,37.3,29.93,East,88,14.0,18.0,91,0.00,,---,0.56,VWS V14.01,2013-04-11 00:33:00,
2013-04-10 20:38:00,39.7,37.3,29.92,ENE,68,11.0,18.0,91,0.00,,---,0.56,VWS V14.01,2013-04-11 00:38:00,
2013-04-10 20:43:00,39.6,37.5,29.93,ENE,72,12.0,19.0,92,0.00,,---,0.56,VWS V14.01,2013-04-11 00:43:00,
2013-04-10 20:48:00,39.6,37.5,29.92,ENE,67,12.0,16.0,92,0.00,,---,0.56,VWS V14.01,2013-04-11 00:48:00,
2013-04-10 20:53:00,39.6,37.5,29.92,NE,48,7.0,15.0,92,0.00,,---,0.56,VWS V14.01,2013-04-11 00:53:00,
2013-04-10 20:58:00,39.5,37.4,29.93,ENE,71,10.0,17.0,92,0.00,,---,0.56,VWS V14.01,2013-04-11 00:58:00,
2013-04-10 21:03:00,39.5,37.4,29.93,ENE,75,10.0,16.0,92,0.00,,---,0.56,VWS V14.01,2013-04-11 01:03:00,
2013-04-10 21:08:00,39.5,37.4,29.93,ENE,59,8.0,13.0,92,0.00,,---,0.56,VWS V14.01,2013-04-11 01:08:00,
2013-04-10 21:13:00,39.4,37.3,29.94,ENE,65,11.0,17.0,92,0.00,,---,0.56,VWS V14.01,2013-04-11 01:13:00,
2013-04-10 21:18:00,39.3,36.9,29.94,ENE,67,11.0,16.0,91,0.00,,---,0.56,VWS V14.01,2013-04-11 01:18:00,
2013-04-10 21:23:00,39.2,36.8,29.94,ENE,63,10.0,18.0,91,0.00,,---,0.56,VWS V14.01,2013-04-11 01:23:00,
2013-04-10 21:28:00,39.2,36.8,29.93,ENE,69,12.0,20.0,91,0.00,,---,0.56,VWS V14.01,2013-04-11 01:28:00,
2013-04-10 21:33:00,39.1,36.7,29.93,ENE,75,12.0,19.0,91,0.00,,---,0.56,VWS V14.01,2013-04-11 01:33:00,
2013-04-10 21:38:00,39.1,36.7,29.93,ENE,59,6.0,18.0,91,0.00,,---,0.56,VWS V14.01,2013-04-11 01:38:00,
2013-04-10 21:43:00,39.1,36.7,29.93,ENE,75,7.0,18.0,91,0.00,,---,0.56,VWS V14.01,2013-04-11 01:43:00,
2013-04-10 21:48:00,39.0,36.6,29.93,ENE,71,12.0,21.0,91,0.00,,---,0.56,VWS V14.01,2013-04-11 01:48:00,
2013-04-10 21:53:00,39.0,36.6,29.94,NE,52,16.0,17.0,91,0.00,,---,0.56,VWS V14.01,2013-04-11 01:53:00,
2013-04-10 21:58:00,38.9,36.5,29.94,ENE,65,12.0,13.0,91,0.00,,---,0.56,VWS V14.01,2013-04-11 01:58:00,
2013-04-10 22:03:00,38.9,36.5,29.94,ENE,59,14.0,14.0,91,0.00,,---,0.56,VWS V14.01,2013-04-11 02:03:00,
2013-04-10 22:08:00,38.9,36.8,29.95,ENE,65,17.0,19.0,92,0.00,,---,0.56,VWS V14.01,2013-04-11 02:08:00,
2013-04-10 22:13:00,38.9,36.8,29.94,ENE,71,15.0,19.0,92,0.00,,---,0.56,VWS V14.01,2013-04-11 02:13:00,
2013-04-10 22:18:00,38.9,36.8,29.95,ENE,71,14.0,23.0,92,0.00,,---,0.56,VWS V14.01,2013-04-11 02:18:00,
2013-04-10 22:23:00,38.9,36.8,29.96,ESE,105,11.0,17.0,92,0.00,,---,0.56,VWS V14.01,2013-04-11 02:23:00,
2013-04-10 22:28:00,38.9,36.8,29.97,East,86,5.0,14.0,92,0.00,,---,0.56,VWS V14.01,2013-04-11 02:28:00,
2013-04-10 22:33:00,38.9,36.8,29.96,ENE,75,14.0,17.0,92,0.00,,---,0.56,VWS V14.01,2013-04-11 02:33:00,
2013-04-10 22:38:00,38.8,36.7,29.94,ENE,69,10.0,19.0,92,0.00,,---,0.56,VWS V14.01,2013-04-11 02:38:00,
2013-04-10 22:43:00,38.7,36.6,29.95,ENE,76,7.0,15.0,92,0.00,,---,0.56,VWS V14.01,2013-04-11 02:43:00,
2013-04-10 22:48:00,38.6,36.5,29.94,East,80,18.0,19.0,92,0.00,,---,0.56,VWS V14.01,2013-04-11 02:48:00,
2013-04-10 22:53:00,38.6,36.5,29.95,ENE,71,12.0,18.0,92,0.00,,---,0.56,VWS V14.01,2013-04-11 02:53:00,
2013-04-10 22:58:00,38.5,36.7,29.95,ENE,71,8.0,18.0,93,0.00,,---,0.56,VWS V14.01,2013-04-11 02:58:00,
2013-04-10 23:03:00,38.4,36.3,29.94,ENE,59,12.0,18.0,92,0.00,,---,0.56,VWS V14.01,2013-04-11 03:03:00,
2013-04-10 23:08:00,38.4,36.6,29.94,ENE,78,8.0,18.0,93,0.00,,---,0.56,VWS V14.01,2013-04-11 03:08:00,
2013-04-10 23:13:00,38.3,36.5,29.94,ENE,59,8.0,17.0,93,0.00,,---,0.56,VWS V14.01,2013-04-11 03:13:00,
2013-04-10 23:18:00,38.3,36.5,29.93,East,86,14.0,22.0,93,0.00,,---,0.56,VWS V14.01,2013-04-11 03:18:00,
2013-04-10 23:23:00,38.2,36.4,29.93,East,88,10.0,22.0,93,0.00,,---,0.56,VWS V14.01,2013-04-11 03:23:00,
2013-04-10 23:28:00,38.2,36.4,29.93,NE,46,14.0,24.0,93,0.00,,---,0.56,VWS V14.01,2013-04-11 03:28:00,
2013-04-10 23:33:00,38.2,36.4,29.93,ENE,68,13.0,22.0,93,0.00,,---,0.56,VWS V14.01,2013-04-11 03:33:00,
2013-04-10 23:38:00,38.2,36.4,29.93,ENE,77,8.0,19.0,93,0.00,,---,0.56,VWS V14.01,2013-04-11 03:38:00,
2013-04-10 23:43:00,38.2,36.4,29.93,ENE,68,12.0,17.0,93,0.00,,---,0.56,VWS V14.01,2013-04-11 03:43:00,
2013-04-10 23:48:00,38.2,36.4,29.92,ENE,59,20.0,21.0,93,0.00,,---,0.56,VWS V14.01,2013-04-11 03:48:00,
2013-04-10 23:53:00,38.2,36.4,29.92,NE,53,12.0,20.0,93,0.00,,---,0.56,VWS V14.01,2013-04-11 03:53:00,
2013-04-10 23:58:00,38.1,36.3,29.92,ENE,61,12.0,25.0,93,0.00,,---,0.56,VWS V14.01,2013-04-11 03:58:00,